Location: Central Falls
(41.8900°N, 71.3929°W)
Time: 15:10:01
(UTC+00:00)

Vanguard 2 - Pass Details

Date: 09 December 2023
Orbit: 553 x 2919 km, 32.9° (Epoch: 24 February)

Event Time Altitude Azimuth Distance (km) Brightness Sun altitude
Rises 22:26:36 0° 209° (SSW) 6,089 12.9 -13.0°
Reaches altitude 10° 22:31:00 10° 200° (SSW) 5,333 12.3 -13.8°
Maximum altitude 22:44:44 33° 145° (SE) 4,139 11.0 -16.2°
Enters shadow 22:55:38 17° 98° (E) 5,021 11.1 -18.2°
Drops below altitude 10° 22:58:51 10° 91° (E) 5,514 - -18.8°
Sets 23:03:26 0° 82° (E) 6,319 - -19.6°
